EHI
0 0 0 0 0 0 0 0 0 0 0 0 0 0 0 0 0 0 0 0 0 0 0 0 0 0 0 0 0 0 0 0 0 0 0 0 0 0 0 0 0 0 0
0 0 0 0 0 0 0 0 0 0 0 0 0 0 0 0 0 0 0 0 0 0 0 0 0 0 0 0 0 0 0 0 0 0 0 0 0 0 0 0 0 0 0
0 0 0 0 0 0 0 0 0 0 0 0 0 0 0 0 0 0 0 0 0 0 0 0 0 0 0 0 0 0 0 0 0 0 0 0 0 0 0 0 0 0 0
0 0 0 0 0 0 0 0 0 0 0 0 0 0 0 0 0 0 0 0 0 0 0 0 0 0 0 0 0 0 0 0 0 0 0 0 0 0 0 0 0 0 0
0 0 0 0 0 0 0 0 0 0 0 0 0 0 0 0 0 0 0 0 0 0 0 0 0 0 0 0 0 0 0 0 0 0 0 0 0 0 0 0 0 0 0
0 0 0 0 0 0 0 0 0 0 0 0 0 0 0 0 0 0 0 0 0 0 0 0 0 0 0 0 0 0 0 0 0 0 0 0 0 0 0 0 0 0 0
0 0 0 0 0 0 0 0 0 0 0 0 0 0 0 0 0 0 0 0 0 0 0 0 0 0 0 0 0 0 0 0 0 0 0 0 0 0 0 0 0 0 0
0 0 0 0 0 0 0 0 0 0 0 0 0 0 0 0 0 0 0 0 0 0 0 0 0 0 0 0 0 0 0 0 0 0 0 0 0 0 0 0 0 0 0
0 0 0 0 0 0 0 0 0 0 0 0 0 0 0 0 0 0 0 0 0 0 0 0 0 0 0 0 0 0 0 0 0 0 0 0 0 0 0 0 0 0 0
0 0 0 0 0 0 0 0 0 0 0 0 0 0 0 0 0 0 0 0 0 0 0 0 0 0 0 0 0 0 0 0 0 0 0 0 0 0 0 0 0 0 0
0 0 0 0 0 0 0 0 0 0 0 0 0 0 0 0 0 0 0 0 0 0 0 0 0 0 0 0 0 0 0 0 0 0 0 0 0 0 0 0 0 0 0
0 0 0 0 0 0 0 0 0 0 0 0 0 0 0 0 0 0 0 0 0 0 0 0 0 0 0 0 0 0 0 0 0 0 0 0 0 0 0 0 0 0 0
0 0 0 0 0 0 0 0 0 0 0 0 0 0 0 0 0 0 0 0 0 0 0 0 0 0 0 0 0 0 0 0 0 0 0 0 0 0 0 0 0 0 0
0 0 0 0 0 0 0 0 0 0 0 0 0 0 0 0 0 0 0 0 0 0 0 0 0 0 0 0 0 0 0 0 0 0 0 0 0 0 0 0 0 0 0
0 0 0 0 0 0 0 0 0 0 0 0 0 0 0 0 0 0 0 0 0 0 0 0 0 0 0 0 0 0 0 0 0 0 0 0 0 0 0 0 0 0 0
0 0 0 0 0 0 0 0 0 0 0 0 0 0 0 0 0 0 0 0 0 0 0 0 0 0 0 0 0 0 0 0 0 0 0 0 0 0 0 0 0 0 0
0 0 0 0 0 0 0 0 0 0 0 0 0 0 0 0 0 0 0 0 0 0 0 0 0 0 0 0 0 0 0 0 0 0 0 0 0 0 0 0 0 0 0
0 0 0 0 0 0 0 0 0 0 0 0 0 0 0 0 0 0 0 0 0 0 0 0 0 0 0 0 0 0 0 0 0 0 0 0 0 0 0 0 0 0 0
0 0 0 0 0 0 0 0 0 0 0 0 0 0 0 0 0 0 0 0 0 0 0 0 0 0 0 0 0 0 0 0 0 0 0 0 0 0 0 0 0 0 0
0 0 0 0 0 0 0 0 0 0 0 0 0 0 0 0 0 0 0 0 0 0 0 0 0 0 0 0 0 0 0 0 0 0 0 0 0 0 0 0 0 0 0
0 0 0 0 0 0 0 0 0 0 0 0 0 0 0 0 0 0 0 0 0 0 0 0 0 0 0 0 0 0 0 0 0 0 0 0 0 0 0 0 0 0 0
0 0 0 0 0 0 0 0 0 0 0 0 0 0 0 0 0 0 0 0 0 0 0 0 0 0 0 0 0 0 0 0 0 0 0 0 0 0 0 0 0 0 0
0 0 0 0 0 0 0 0 0 0 0 0 0 0 0 0 0 0 0 0 0 0 0 0 0 0 0 0 0 0 0 0 0 0 0 0 0 0 0 0 0 0 0
0 0 0 0 0 0 0 0 0 0 0 0 0 0 0 0 0 0 0 0 0 0 0 0 0 0 0 0 0 0 0 0 0 0 0 0 0 0 0 0 0 0 0
0 0 0 0 0 0 0 0 0 0 0 0 0 0 0 0 0 0 0 0 0 0 0 0 0 0 0 0 0 0 0 0 0 0 0 0 0 0 0 0 0 0 0
0 0 0 0 0 0 0 0 0 0 0 0 0 0 0 0 0 0 0 0 0 0 0 0 0 0 0 0 0 0 0 0 0 0 0 0 0 0 0 0 0 0 0
Wind_Speed
13 16 19 18 17 16 15 14 14 13 13 13 13 12 13 13 13 14 14 14 14 14 14 15 15 15 16 16 16 16 16 16 16 16 16 16 16 16 16 15 12 12 16
17 18 20 19 18 17 16 15 14 13 13 13 13 13 13 13 13 13 14 13 13 14 14 14 15 15 15 15 15 15 15 15 15 14 12 13 15 15 15 14 14 10 14
19 18 20 19 18 17 16 16 15 14 13 13 13 13 12 12 12 13 13 13 13 13 13 14 14 14 14 14 14 14 15 14 13 11 8 9 11 13 13 13 13 12 12
19 17 18 19 19 18 17 16 15 14 13 13 13 12 12 12 12 12 12 12 13 13 13 13 13 13 13 13 13 13 13 13 11 8 7 9 9 12 12 12 11 11 11
17 16 17 20 19 18 18 16 15 14 14 13 13 12 12 12 12 12 12 12 12 12 12 12 12 12 12 12 12 12 12 11 8 8 8 8 8 10 11 10 10 10 10
17 16 18 19 19 19 18 17 16 15 14 14 13 12 12 12 12 12 11 11 11 11 11 11 11 11 11 11 11 11 10 8 4 7 7 7 7 9 9 9 9 10 10
17 16 18 19 19 19 18 17 16 15 14 14 13 12 12 12 12 11 11 10 10 10 10 10 10 10 10 10 10 10 9 7 6 6 6 6 8 9 9 9 10 10 10
16 15 17 19 18 18 18 17 16 15 15 14 13 12 12 12 11 11 10 10 9 9 9 9 9 9 9 9 9 9 7 5 5 6 5 6 8 8 9 9 9 10 10
15 14 15 17 17 17 16 16 16 15 14 14 13 12 12 11 11 10 10 9 8 8 8 8 8 9 9 8 8 8 7 4 4 4 5 5 8 8 8 9 9 10 10
14 14 14 15 15 15 15 15 14 14 14 13 12 11 10 10 10 9 9 8 8 7 7 7 7 8 8 8 7 6 3 2 5 4 3 5 7 7 8 9 9 10 10
14 13 13 14 14 13 13 14 14 13 12 12 11 11 9 8 9 8 7 7 7 6 6 7 7 7 6 7 6 3 1 2 4 3 4 7 7 7 8 8 9 9 9
18 17 14 14 14 13 11 12 10 10 11 10 10 11 8 6 5 6 8 6 6 6 6 6 6 5 2 3 4 2 1 2 2 3 4 7 6 6 7 7 8 8 9
19 17 15 14 14 13 10 9 7 7 8 9 10 10 7 6 5 5 5 6 5 5 4 5 4 2 2 2 1 2 3 2 2 2 5 7 6 6 6 7 7 7 8
18 18 16 15 14 14 11 9 8 7 7 7 9 10 7 5 5 5 4 4 4 3 3 2 1 2 2 2 1 2 2 1 2 2 5 7 6 6 6 6 6 7 8
18 19 18 17 15 14 12 9 9 9 8 9 8 9 8 6 6 6 4 4 4 3 3 2 2 2 1 1 1 1 1 2 2 2 3 6 7 6 6 6 6 7 7
19 19 18 18 17 15 12 10 9 9 8 9 8 10 10 7 6 6 5 4 4 3 3 2 2 1 1 0 1 1 1 1 1 1 2 4 6 6 6 6 6 6 7
19 19 19 18 18 17 15 13 9 9 9 9 8 10 11 9 8 7 5 5 5 4 4 2 2 1 1 1 1 0 0 1 0 1 1 1 2 5 6 6 6 6 6
18 19 19 16 18 18 15 13 10 9 10 9 9 9 11 11 9 7 6 6 5 5 4 3 3 2 2 1 1 0 0 1 1 0 1 1 1 1 4 6 5 6 6
18 19 19 19 19 18 16 12 11 10 10 9 9 9 11 12 11 8 6 6 6 5 4 4 3 3 2 1 1 1 1 1 1 2 2 2 1 1 0 3 3 4 5
18 18 19 19 19 17 14 11 9 10 10 9 9 10 12 11 12 10 7 8 7 6 5 5 5 3 2 1 1 1 2 2 2 2 2 2 2 2 1 1 1 1 3
18 19 20 20 19 16 13 13 12 12 11 10 10 12 13 13 13 11 8 8 8 7 7 7 5 5 3 2 2 2 3 3 3 3 3 3 3 3 2 2 2 2 1
20 20 21 21 20 19 15 14 12 12 10 10 9 11 13 14 13 11 11 9 9 7 8 8 7 4 3 4 3 3 3 4 4 4 3 4 4 3 4 4 3 3 3
19 21 19 22 22 21 19 13 10 9 8 9 11 11 13 14 14 13 13 11 10 9 8 9 8 8 5 4 4 3 3 2 1 4 5 5 5 4 4 4 5 4 4
19 18 20 21 21 21 20 16 17 14 13 15 12 11 13 14 14 14 13 12 10 9 9 9 9 7 6 5 4 4 4 3 3 2 4 5 5 6 6 4 5 5 5
16 16 17 19 20 21 20 20 19 16 14 11 12 13 13 13 14 13 13 12 11 9 10 9 9 9 7 6 5 4 4 4 5 5 5 4 4 5 5 6 5 5 5
13 14 15 18 19 20 21 20 20 20 17 14 15 13 12 10 11 14 13 12 11 10 10 10 9 10 8 8 6 5 4 4 5 5 6 6 5 4 5 5 6 5 5
Wind_Direction
162 160 158 156 151 147 143 137 130 122 118 115 110 105 101 98 94 90 87 84 82 79 77 76 77 76 73 71 70 68 66 65 62 59 58 60 60 58 54 46 44 52 48
154 157 157 157 153 149 144 138 130 126 124 119 115 111 107 101 96 92 88 86 84 82 80 78 77 76 74 72 70 69 67 65 62 60 62 67 61 57 54 50 45 47 46
152 155 157 157 155 150 144 139 133 130 128 123 120 116 112 106 101 95 92 89 86 84 82 79 77 76 74 73 71 70 67 64 60 57 60 63 63 57 54 50 47 45 43
152 155 156 154 154 150 146 141 137 134 131 128 124 120 117 111 106 101 98 94 90 87 84 82 80 78 76 74 73 71 68 63 56 48 56 55 56 52 50 46 43 40 37
153 155 150 154 154 152 148 145 141 138 136 133 128 125 120 115 111 107 103 98 94 90 87 85 82 80 79 77 75 73 69 63 58 59 59 54 53 45 44 40 35 33 31
155 155 151 157 156 153 150 148 145 143 141 137 132 128 123 118 114 109 107 103 100 97 93 90 87 84 81 80 77 74 69 56 59 60 54 46 44 37 38 37 31 27 25
157 157 154 159 157 155 153 151 150 147 144 140 136 133 128 123 119 116 112 108 105 101 97 93 89 87 83 82 79 74 68 48 51 58 49 45 35 26 33 33 28 26 24
158 158 156 160 158 158 157 155 154 151 147 144 142 139 133 129 126 123 118 111 107 103 98 96 92 88 85 83 79 75 66 33 61 55 48 44 30 21 32 31 25 22 23
161 162 161 162 162 161 160 158 157 153 150 147 144 140 135 135 134 130 124 118 113 107 101 96 92 87 82 81 78 75 70 25 40 52 43 38 20 19 30 30 28 28 29
168 170 167 166 165 165 164 160 157 155 154 150 145 138 136 142 140 132 133 123 116 110 104 99 94 88 80 77 78 80 77 257 53 54 39 38 13 19 32 34 33 31 31
177 178 174 170 169 169 165 158 160 157 155 153 147 139 150 158 149 148 122 121 120 115 106 99 94 90 92 92 80 84 230 43 57 39 38 25 10 22 31 36 35 31 31
182 183 178 176 173 171 165 165 169 167 164 172 163 162 169 159 149 141 119 119 117 114 111 96 99 120 165 110 113 192 67 51 44 49 45 18 9 18 32 38 36 32 32
182 182 182 180 177 174 170 172 171 170 170 176 171 170 168 161 156 163 157 152 151 156 144 130 158 117 80 65 51 58 42 31 38 48 51 19 10 19 33 38 37 33 36
184 185 185 182 182 181 178 176 175 174 175 175 175 176 174 171 174 169 173 163 165 162 150 160 138 120 102 87 62 60 65 40 33 33 49 24 15 20 30 38 35 37 36
188 188 188 186 185 184 183 181 183 182 179 179 177 183 182 177 179 177 177 174 176 166 170 172 170 137 127 93 71 39 41 37 29 35 71 49 29 26 33 35 31 35 32
192 191 188 189 188 186 186 186 187 185 182 183 182 186 187 185 183 184 181 182 180 181 176 184 167 161 139 116 80 47 18 42 32 40 65 87 58 36 36 33 30 30 25
193 190 189 191 190 190 191 190 189 188 186 187 185 189 190 191 187 188 187 185 185 182 183 188 168 193 164 184 199 47 16 356 258 98 93 62 96 72 50 39 29 24 18
194 191 190 189 193 193 193 192 190 191 190 190 188 189 193 193 192 192 191 192 186 185 192 193 199 201 199 219 243 163 219 210 239 183 162 152 115 108 85 51 29 22 12
197 192 190 191 194 194 193 192 192 191 195 194 192 192 193 195 195 196 198 192 186 191 197 194 209 218 214 221 257 260 247 228 213 208 188 166 149 167 126 87 50 25 6
199 195 193 193 194 192 191 192 192 194 197 199 198 197 194 196 197 199 198 196 189 193 198 200 200 206 222 222 224 237 234 228 223 214 202 190 187 189 229 250 248 70 2
199 197 195 194 193 189 188 191 193 195 195 198 201 201 199 199 197 200 199 195 194 200 203 204 200 198 203 204 226 233 212 211 220 209 216 217 203 210 234 251 270 280 276
200 199 198 196 194 192 193 194 196 195 196 197 198 204 203 202 199 199 202 197 196 201 202 200 200 204 194 206 237 254 241 202 197 210 219 227 228 220 235 250 261 266 280
202 200 199 198 196 195 193 190 187 188 190 195 199 200 204 203 201 201 204 201 199 200 201 201 200 206 205 200 229 248 259 265 216 194 216 225 229 236 243 247 255 261 269
204 201 201 198 197 194 191 190 188 190 194 198 196 197 199 203 203 203 203 202 200 202 204 202 203 208 209 206 201 234 260 290 264 255 209 221 233 246 252 250 253 253 256
202 198 199 197 196 193 192 193 194 199 201 196 194 196 197 199 203 202 201 200 201 203 206 201 199 206 209 212 201 197 214 231 247 257 266 247 235 237 246 253 253 252 252
197 194 195 195 195 193 193 195 198 200 199 193 192 192 193 195 199 201 201 201 201 202 203 201 199 204 209 212 209 204 204 211 221 233 257 266 266 255 246 249 250 249 249